START_TIME,STEP,MOV.,M29,t_acc.,H22,t_acc.,H26,t_acc.,H30,t_acc.
1979-07-22 06:00:31.550 ,5,0,1.,24.0,0.,24.0,0.,24.0,0.,24.0
1979-07-22 06:00:55.550 ,4,1,0.,24.0,0.,24.0,0.,24.0,0.,24.0
1979-07-22 06:01:19.550 ,4,0,0.,24.0,0.,24.0,0.,24.0,0.,24.0
1979-07-22 06:01:43.550 ,3,1,0.,24.0,0.,24.0,0.,24.0,0.,24.0
1979-07-22 06:02:07.550 ,3,0,0.,24.0,0.,24.0,0.,24.0,0.,24.0
1979-07-22 06:02:31.550 ,2,1,0.,24.0,0.,24.0,0.,24.0,0.,24.0
1979-07-22 06:02:55.550 ,2,0,0.,24.0,0.,24.0,0.,24.0,0.,24.0
1979-07-22 06:03:19.550 ,1,1,0.,24.0,0.,24.0,0.,24.0,0.,24.0
1979-07-22 06:03:43.550 ,1,0,0.,24.0,0.,24.0,0.,24.0,0.,24.0
1979-07-22 06:04:07.550 ,0,1,0.,24.0,0.,24.0,0.,24.0,0.,24.0
1979-07-22 06:04:31.550 ,0,0,0.,24.0,0.,24.0,0.,24.0,0.,24.0
1979-07-22 06:04:55.550 ,0,1,0.,24.0,0.,24.0,0.,24.0,0.,24.0
1979-07-22 06:05:19.550 ,0,0,0.,24.0,0.,24.0,0.,24.0,0.,24.0
1979-07-22 06:05:43.550 ,1,1,0.,24.0,0.,24.0,0.,24.0,0.,24.0
1979-07-22 06:06:07.550 ,1,0,0.,24.0,0.,24.0,0.,24.0,0.,24.0
1979-07-22 06:06:31.550 ,2,1,0.,24.0,0.,24.0,0.,24.0,0.,24.0
1979-07-22 06:06:55.550 ,2,0,0.,24.0,0.,24.0,0.,24.0,0.,24.0
1979-07-22 06:07:19.550 ,3,1,0.,24.0,0.,24.0,0.,24.0,0.,24.0
1979-07-22 06:07:43.550 ,3,0,0.,24.0,0.,24.0,0.,24.0,0.,24.0
1979-07-22 06:08:07.550 ,4,1,0.,24.0,0.,24.0,0.,24.0,0.,24.0
1979-07-22 06:08:31.550 ,4,0,1.,24.0,0.,24.0,0.,24.0,0.,24.0
1979-07-22 06:08:55.550 ,5,1,0.,24.0,0.,24.0,0.,24.0,0.,24.0
1979-07-22 06:09:19.550 ,5,0,0.,24.0,0.,24.0,0.,24.0,0.,24.0
1979-07-22 06:09:43.550 ,6,1,0.,24.0,0.,24.0,0.,24.0,0.,24.0
1979-07-22 06:10:07.550 ,6,0,0.,24.0,0.,24.0,0.,24.0,0.,24.0
1979-07-22 06:10:31.550 ,7,1,0.,24.0,0.,24.0,0.,24.0,0.,24.0
1979-07-22 06:10:55.550 ,7,0,0.,24.0,0.,24.0,0.,24.0,0.,24.0
1979-07-22 06:11:19.550 ,7,1,0.,24.0,0.,24.0,0.,24.0,0.,24.0
1979-07-22 06:11:43.550 ,7,0,0.,24.0,0.,24.0,0.,24.0,0.,24.0
1979-07-22 06:12:07.550 ,6,1,0.,24.0,0.,24.0,0.,24.0,0.,24.0
1979-07-22 06:12:31.550 ,6,0,0.,24.0,0.,24.0,0.,24.0,0.,24.0
1979-07-22 06:13:43.550 ,0,0,0.,24.0,0.,24.0,0.,24.0,0.,24.0
1979-07-22 06:14:07.550 ,0,0,0.,24.0,0.,24.0,0.,24.0,0.,24.0
1979-07-22 06:14:31.550 ,3,1,1.,24.0,0.,24.0,0.,24.0,0.,24.0
1979-07-22 06:14:55.550 ,3,0,0.,24.0,0.,24.0,0.,24.0,0.,24.0
1979-07-22 06:15:19.550 ,2,1,0.,24.0,0.,24.0,0.,24.0,0.,24.0
1979-07-22 06:15:43.550 ,2,0,0.,24.0,0.,24.0,0.,24.0,0.,24.0
1979-07-22 06:16:07.550 ,1,1,0.,24.0,0.,24.0,0.,24.0,0.,24.0
1979-07-22 06:16:31.550 ,1,0,0.,24.0,0.,24.0,0.,24.0,0.,24.0
1979-07-22 06:16:55.550 ,0,1,0.,24.0,0.,24.0,0.,24.0,0.,24.0
1979-07-22 06:17:19.550 ,0,0,0.,24.0,0.,24.0,0.,24.0,0.,24.0
1979-07-22 06:17:43.550 ,0,1,0.,24.0,0.,24.0,0.,24.0,0.,24.0
1979-07-22 06:18:07.550 ,0,0,0.,24.0,0.,24.0,0.,24.0,0.,24.0
1979-07-22 06:18:31.550 ,1,1,1.,24.0,0.,24.0,0.,24.0,0.,24.0
1979-07-22 06:18:55.550 ,1,0,0.,24.0,0.,24.0,0.,24.0,0.,24.0
1979-07-22 06:19:19.550 ,2,1,0.,24.0,0.,24.0,0.,24.0,0.,24.0
1979-07-22 06:19:43.550 ,2,0,0.,24.0,0.,24.0,0.,24.0,0.,24.0
1979-07-22 06:20:07.550 ,3,1,0.,24.0,0.,24.0,0.,24.0,0.,24.0
1979-07-22 06:20:31.550 ,3,0,0.,24.0,0.,24.0,0.,24.0,0.,24.0
1979-07-22 06:20:55.550 ,4,1,0.,24.0,0.,24.0,0.,24.0,0.,24.0
1979-07-22 06:21:19.550 ,4,0,0.,24.0,0.,24.0,0.,24.0,0.,24.0
1979-07-22 06:21:43.550 ,5,1,0.,24.0,0.,24.0,0.,24.0,0.,24.0
1979-07-22 06:22:07.550 ,5,0,0.,24.0,0.,24.0,0.,24.0,0.,24.0
1979-07-22 06:22:31.550 ,6,1,0.,24.0,0.,24.0,0.,24.0,0.,24.0
1979-07-22 06:22:55.550 ,6,0,0.,24.0,0.,24.0,0.,24.0,0.,24.0
1979-07-22 06:23:19.550 ,7,1,0.,24.0,0.,24.0,0.,24.0,0.,24.0
1979-07-22 06:23:43.550 ,7,0,0.,24.0,0.,24.0,0.,24.0,0.,24.0
1979-07-22 06:24:07.550 ,7,1,0.,24.0,0.,24.0,0.,24.0,0.,24.0
1979-07-22 06:24:31.550 ,7,0,0.,24.0,0.,24.0,0.,24.0,0.,24.0
1979-07-22 06:24:55.550 ,6,1,0.,24.0,0.,24.0,0.,24.0,0.,24.0
1979-07-22 06:25:19.550 ,6,0,0.,24.0,0.,24.0,0.,24.0,0.,24.0
1979-07-22 06:25:43.550 ,5,1,0.,24.0,0.,24.0,0.,24.0,0.,24.0
1979-07-22 06:26:07.550 ,5,0,0.,24.0,0.,24.0,0.,24.0,0.,24.0
1979-07-22 06:26:31.550 ,4,1,0.,24.0,0.,24.0,0.,24.0,0.,24.0
1979-07-22 06:26:55.550 ,4,0,0.,24.0,0.,24.0,0.,24.0,0.,24.0
1979-07-22 06:27:19.550 ,3,1,0.,24.0,0.,24.0,0.,24.0,0.,24.0
1979-07-22 06:27:43.550 ,3,0,0.,24.0,0.,24.0,0.,24.0,0.,24.0
1979-07-22 06:28:07.550 ,2,1,0.,24.0,0.,24.0,0.,24.0,0.,24.0
1979-07-22 06:28:31.550 ,2,0,0.,24.0,0.,24.0,0.,24.0,0.,24.0
1979-07-22 06:28:55.550 ,1,1,0.,24.0,0.,24.0,0.,24.0,0.,24.0
1979-07-22 06:29:19.550 ,1,0,0.,24.0,0.,24.0,0.,24.0,0.,24.0
1979-07-22 06:29:43.550 ,0,1,0.,24.0,0.,24.0,0.,24.0,0.,24.0
1979-07-22 06:30:07.550 ,0,0,0.,24.0,0.,24.0,0.,24.0,0.,24.0
1979-07-22 06:30:31.550 ,0,1,0.,24.0,0.,24.0,0.,24.0,0.,24.0
1979-07-22 06:30:55.550 ,0,0,0.,24.0,0.,24.0,0.,24.0,0.,24.0
1979-07-22 06:31:19.550 ,1,1,0.,24.0,0.,24.0,0.,24.0,0.,24.0
1979-07-22 06:31:43.550 ,1,0,0.,24.0,0.,24.0,0.,24.0,0.,24.0
1979-07-22 06:32:07.550 ,2,1,0.,24.0,0.,24.0,0.,24.0,0.,24.0
1979-07-22 06:32:31.550 ,2,0,0.,24.0,0.,24.0,0.,24.0,0.,24.0
1979-07-22 06:32:55.550 ,3,1,0.,24.0,0.,24.0,0.,24.0,0.,24.0
1979-07-22 06:33:19.550 ,3,0,0.,24.0,0.,24.0,0.,24.0,0.,24.0
1979-07-22 06:33:43.550 ,4,1,0.,24.0,0.,24.0,0.,24.0,0.,24.0
1979-07-22 06:34:07.550 ,4,0,0.,24.0,0.,24.0,0.,24.0,0.,24.0
1979-07-22 06:34:31.540 ,5,1,0.,24.0,0.,24.0,0.,24.0,0.,24.0
1979-07-22 06:34:55.540 ,5,0,0.,24.0,0.,24.0,0.,24.0,0.,24.0
1979-07-22 06:35:19.540 ,6,1,0.,24.0,0.,24.0,0.,24.0,0.,24.0
1979-07-22 06:35:43.540 ,6,0,0.,24.0,0.,24.0,0.,24.0,0.,24.0
1979-07-22 06:36:07.540 ,7,1,0.,24.0,0.,24.0,0.,24.0,0.,24.0
1979-07-22 06:36:31.540 ,7,0,0.,24.0,0.,24.0,0.,24.0,0.,24.0
1979-07-22 06:36:55.540 ,7,1,0.,24.0,0.,24.0,0.,24.0,0.,24.0
1979-07-22 06:37:19.540 ,7,0,0.,24.0,0.,24.0,0.,24.0,0.,24.0
1979-07-22 06:37:43.540 ,6,1,0.,24.0,0.,24.0,0.,24.0,0.,24.0
1979-07-22 06:38:07.540 ,6,0,0.,24.0,0.,24.0,0.,24.0,0.,24.0
1979-07-22 06:38:31.540 ,5,1,0.,24.0,0.,24.0,0.,24.0,0.,24.0
1979-07-22 06:38:55.540 ,5,0,0.,24.0,0.,24.0,0.,24.0,0.,24.0
1979-07-22 06:39:19.540 ,4,1,0.,24.0,0.,24.0,0.,24.0,0.,24.0
1979-07-22 06:39:43.540 ,4,0,0.,24.0,0.,24.0,0.,24.0,0.,24.0
1979-07-22 06:40:07.540 ,3,1,0.,24.0,0.,24.0,0.,24.0,0.,24.0
1979-07-22 06:40:31.540 ,3,0,0.,24.0,0.,24.0,0.,24.0,0.,24.0
1979-07-22 06:40:55.540 ,2,1,0.,24.0,0.,24.0,0.,24.0,0.,24.0
1979-07-22 06:41:19.540 ,2,0,0.,24.0,0.,24.0,0.,24.0,0.,24.0
1979-07-22 06:41:43.540 ,1,1,0.,24.0,0.,24.0,0.,24.0,0.,24.0
1979-07-22 06:42:07.540 ,1,0,0.,24.0,0.,24.0,0.,24.0,0.,24.0
1979-07-22 06:42:31.540 ,0,1,0.,24.0,0.,24.0,0.,24.0,0.,24.0
1979-07-22 06:42:55.540 ,0,0,0.,24.0,0.,24.0,0.,24.0,0.,24.0
1979-07-22 06:43:19.540 ,0,1,0.,24.0,0.,24.0,0.,24.0,0.,24.0
1979-07-22 06:43:43.540 ,0,0,0.,24.0,0.,24.0,0.,24.0,0.,24.0
1979-07-22 06:44:07.540 ,1,1,0.,24.0,0.,24.0,0.,24.0,0.,24.0
1979-07-22 06:44:31.540 ,1,0,0.,24.0,0.,24.0,0.,24.0,0.,24.0
1979-07-22 06:44:55.540 ,2,1,0.,24.0,0.,24.0,0.,24.0,0.,24.0
1979-07-22 06:45:19.540 ,2,0,0.,24.0,0.,24.0,0.,24.0,0.,24.0
1979-07-22 06:45:43.540 ,3,1,0.,24.0,0.,24.0,0.,24.0,0.,24.0
1979-07-22 06:46:07.540 ,3,0,0.,24.0,0.,24.0,0.,24.0,0.,24.0
1979-07-22 06:46:31.540 ,4,1,0.,24.0,0.,24.0,0.,24.0,0.,24.0
1979-07-22 06:46:55.540 ,4,0,0.,24.0,0.,24.0,0.,24.0,0.,24.0
1979-07-22 06:47:19.540 ,5,1,0.,24.0,0.,24.0,0.,24.0,0.,24.0
1979-07-22 06:47:43.540 ,5,1,,0,,0,,0,,0
1979-07-22 06:47:54.940 ,0,0,,0,,0,,0,,0
1979-07-22 06:48:07.540 ,6,1,0.,24.0,0.,24.0,0.,24.0,0.,24.0
1979-07-22 06:48:31.540 ,6,0,0.,24.0,0.,24.0,0.,24.0,0.,24.0
1979-07-22 06:48:55.540 ,7,1,0.,24.0,0.,24.0,0.,24.0,0.,24.0
1979-07-22 06:49:19.540 ,7,0,0.,24.0,0.,24.0,0.,24.0,0.,24.0
1979-07-22 06:49:43.540 ,7,1,0.,24.0,0.,24.0,0.,24.0,0.,24.0
1979-07-22 06:50:07.540 ,7,0,0.,24.0,0.,24.0,0.,24.0,0.,24.0
1979-07-22 06:50:31.540 ,6,1,0.,24.0,0.,24.0,0.,24.0,0.,24.0
1979-07-22 06:50:55.540 ,6,0,0.,24.0,0.,24.0,0.,24.0,0.,24.0
1979-07-22 06:51:19.540 ,5,1,0.,24.0,0.,24.0,0.,24.0,0.,24.0
1979-07-22 06:51:43.540 ,5,0,0.,24.0,0.,24.0,0.,24.0,0.,24.0
1979-07-22 06:52:07.540 ,4,1,0.,24.0,0.,24.0,0.,24.0,0.,24.0
1979-07-22 06:52:31.540 ,4,0,0.,24.0,0.,24.0,0.,24.0,0.,24.0
1979-07-22 06:52:55.540 ,3,1,1.,24.0,0.,24.0,0.,24.0,0.,24.0
1979-07-22 06:53:19.540 ,3,0,0.,24.0,0.,24.0,0.,24.0,0.,24.0
1979-07-22 06:53:43.540 ,2,1,0.,24.0,0.,24.0,0.,24.0,0.,24.0
1979-07-22 06:54:07.540 ,2,0,0.,24.0,0.,24.0,0.,24.0,0.,24.0
1979-07-22 06:54:31.540 ,1,1,0.,24.0,0.,24.0,0.,24.0,0.,24.0
1979-07-22 06:54:55.540 ,1,0,0.,24.0,0.,24.0,0.,24.0,0.,24.0
1979-07-22 06:55:19.540 ,0,1,0.,24.0,0.,24.0,0.,24.0,0.,24.0
1979-07-22 06:55:43.540 ,0,0,0.,24.0,0.,24.0,0.,24.0,0.,24.0
1979-07-22 06:56:07.540 ,0,1,0.,24.0,0.,24.0,0.,24.0,0.,24.0
1979-07-22 06:56:31.540 ,0,0,0.,24.0,0.,24.0,0.,24.0,0.,24.0
1979-07-22 06:56:55.540 ,1,1,0.,24.0,0.,24.0,0.,24.0,0.,24.0
1979-07-22 06:57:19.540 ,1,0,0.,24.0,0.,24.0,0.,24.0,0.,24.0
1979-07-22 06:57:43.540 ,2,1,0.,24.0,0.,24.0,0.,24.0,0.,24.0
1979-07-22 06:58:07.540 ,2,0,0.,24.0,0.,24.0,0.,24.0,0.,24.0
1979-07-22 06:58:31.540 ,3,1,0.,24.0,0.,24.0,0.,24.0,0.,24.0
1979-07-22 06:58:55.540 ,3,0,0.,24.0,0.,24.0,0.,24.0,0.,24.0
1979-07-22 06:59:19.540 ,4,1,0.,24.0,0.,24.0,0.,24.0,0.,24.0
1979-07-22 06:59:43.540 ,4,0,0.,24.0,0.,24.0,0.,24.0,0.,24.0
1979-07-22 07:00:07.540 ,5,1,0.,24.0,0.,24.0,0.,24.0,0.,24.0
1979-07-22 07:00:31.540 ,5,0,0.,24.0,0.,24.0,0.,24.0,0.,24.0
1979-07-22 07:00:55.540 ,6,1,0.,24.0,0.,24.0,0.,24.0,0.,24.0
1979-07-22 07:01:19.540 ,6,0,0.,24.0,0.,24.0,0.,24.0,0.,24.0
1979-07-22 07:01:43.540 ,7,1,0.,24.0,0.,24.0,0.,24.0,0.,24.0
1979-07-22 07:02:07.540 ,7,0,0.,24.0,0.,24.0,0.,24.0,0.,24.0
1979-07-22 07:03:19.540 ,0,0,0.,24.0,0.,24.0,0.,24.0,0.,24.0
1979-07-22 07:03:43.540 ,0,0,0.,24.0,0.,24.0,0.,24.0,0.,24.0
1979-07-22 07:04:07.540 ,5,1,0.,24.0,0.,24.0,0.,24.0,0.,24.0
1979-07-22 07:04:31.540 ,5,0,0.,24.0,0.,24.0,0.,24.0,0.,24.0
1979-07-22 07:04:55.540 ,4,1,0.,24.0,0.,24.0,0.,24.0,0.,24.0
1979-07-22 07:05:19.540 ,4,0,0.,24.0,0.,24.0,0.,24.0,0.,24.0
1979-07-22 07:05:43.540 ,3,1,0.,24.0,0.,24.0,0.,24.0,0.,24.0
1979-07-22 07:06:07.540 ,3,0,0.,24.0,0.,24.0,0.,24.0,0.,24.0
1979-07-22 07:06:31.540 ,2,1,0.,24.0,0.,24.0,0.,24.0,0.,24.0
1979-07-22 07:06:55.540 ,2,0,0.,24.0,0.,24.0,0.,24.0,0.,24.0
1979-07-22 07:07:19.540 ,1,1,0.,24.0,0.,24.0,0.,24.0,0.,24.0
1979-07-22 07:07:43.540 ,1,0,0.,24.0,0.,24.0,0.,24.0,0.,24.0
1979-07-22 07:08:07.540 ,0,1,0.,24.0,0.,24.0,0.,24.0,0.,24.0
1979-07-22 07:08:31.540 ,0,0,1.,24.0,0.,24.0,0.,24.0,0.,24.0
1979-07-22 07:08:55.540 ,0,1,0.,24.0,0.,24.0,0.,24.0,0.,24.0
1979-07-22 07:09:19.540 ,0,0,0.,24.0,0.,24.0,0.,24.0,0.,24.0
1979-07-22 07:09:43.540 ,1,1,0.,24.0,0.,24.0,0.,24.0,0.,24.0
1979-07-22 07:10:07.540 ,1,0,0.,24.0,0.,24.0,0.,24.0,0.,24.0
1979-07-22 07:10:31.540 ,2,1,0.,24.0,0.,24.0,0.,24.0,0.,24.0
1979-07-22 07:10:55.540 ,2,0,0.,24.0,0.,24.0,0.,24.0,0.,24.0
1979-07-22 07:11:19.540 ,3,1,0.,24.0,0.,24.0,0.,24.0,0.,24.0
1979-07-22 07:11:43.540 ,3,0,0.,24.0,0.,24.0,0.,24.0,0.,24.0
1979-07-22 07:12:07.540 ,4,1,0.,24.0,0.,24.0,0.,24.0,0.,24.0
1979-07-22 07:12:31.540 ,4,0,0.,24.0,0.,24.0,0.,24.0,0.,24.0
1979-07-22 07:12:55.540 ,5,1,0.,24.0,0.,24.0,0.,24.0,0.,24.0
1979-07-22 07:13:19.540 ,5,0,0.,24.0,0.,24.0,0.,24.0,0.,24.0
1979-07-22 07:13:43.540 ,6,1,0.,24.0,0.,24.0,0.,24.0,0.,24.0
1979-07-22 07:14:07.540 ,6,0,0.,24.0,0.,24.0,0.,24.0,0.,24.0
1979-07-22 07:14:31.540 ,7,1,0.,24.0,0.,24.0,0.,24.0,0.,24.0
1979-07-22 07:14:55.540 ,7,0,0.,24.0,0.,24.0,0.,24.0,0.,24.0
1979-07-22 07:15:19.540 ,7,1,0.,24.0,0.,24.0,0.,24.0,1.,24.0
1979-07-22 07:15:43.540 ,7,0,0.,24.0,0.,24.0,0.,24.0,0.,24.0
1979-07-22 07:16:07.540 ,6,1,0.,24.0,0.,24.0,0.,24.0,0.,24.0
1979-07-22 07:16:31.540 ,6,0,0.,24.0,0.,24.0,0.,24.0,0.,24.0
1979-07-22 07:16:55.540 ,5,1,0.,24.0,0.,24.0,0.,24.0,0.,24.0
1979-07-22 07:17:19.540 ,5,0,1.,24.0,0.,24.0,0.,24.0,0.,24.0
1979-07-22 07:17:43.540 ,4,1,0.,24.0,0.,24.0,0.,24.0,0.,24.0
1979-07-22 07:18:07.540 ,4,0,0.,24.0,0.,24.0,0.,24.0,0.,24.0
1979-07-22 07:18:31.540 ,3,1,0.,24.0,0.,24.0,0.,24.0,0.,24.0
1979-07-22 07:18:55.540 ,3,0,0.,24.0,0.,24.0,0.,24.0,0.,24.0
1979-07-22 07:19:19.540 ,2,1,0.,24.0,0.,24.0,0.,24.0,0.,24.0
1979-07-22 07:19:43.540 ,2,0,0.,24.0,0.,24.0,0.,24.0,0.,24.0
1979-07-22 07:20:07.540 ,1,1,0.,24.0,0.,24.0,0.,24.0,0.,24.0
1979-07-22 07:20:31.540 ,1,0,0.,24.0,0.,24.0,0.,24.0,0.,24.0
1979-07-22 07:20:55.540 ,0,1,0.,24.0,0.,24.0,0.,24.0,0.,24.0
1979-07-22 07:21:19.540 ,0,0,0.,24.0,0.,24.0,0.,24.0,0.,24.0
1979-07-22 07:21:43.540 ,0,1,0.,24.0,0.,24.0,0.,24.0,0.,24.0
1979-07-22 07:22:07.540 ,0,0,0.,24.0,0.,24.0,0.,24.0,0.,24.0
1979-07-22 07:22:31.540 ,1,1,0.,24.0,0.,24.0,0.,24.0,0.,24.0
1979-07-22 07:22:55.540 ,1,0,0.,24.0,0.,24.0,0.,24.0,0.,24.0
1979-07-22 07:23:19.540 ,2,1,0.,24.0,0.,24.0,0.,24.0,0.,24.0
1979-07-22 07:23:43.540 ,2,0,0.,24.0,0.,24.0,0.,24.0,0.,24.0
1979-07-22 07:24:07.540 ,3,1,0.,24.0,0.,24.0,0.,24.0,0.,24.0
1979-07-22 07:24:31.540 ,3,0,1.,24.0,0.,24.0,0.,24.0,0.,24.0
1979-07-22 07:24:55.540 ,4,1,0.,24.0,0.,24.0,0.,24.0,0.,24.0
1979-07-22 07:25:19.540 ,4,0,0.,24.0,0.,24.0,0.,24.0,0.,24.0
1979-07-22 07:25:43.540 ,5,1,0.,24.0,0.,24.0,0.,24.0,0.,24.0
1979-07-22 07:26:07.540 ,5,0,0.,24.0,0.,24.0,0.,24.0,0.,24.0
1979-07-22 07:26:31.540 ,6,1,0.,24.0,0.,24.0,0.,24.0,0.,24.0
1979-07-22 07:26:55.540 ,6,0,0.,24.0,0.,24.0,0.,24.0,0.,24.0
1979-07-22 07:27:19.540 ,7,1,0.,24.0,0.,24.0,0.,24.0,0.,24.0
1979-07-22 07:27:43.540 ,7,0,0.,24.0,0.,24.0,0.,24.0,0.,24.0
1979-07-22 07:28:07.540 ,7,1,0.,24.0,0.,24.0,0.,24.0,0.,24.0
1979-07-22 07:28:31.540 ,7,0,0.,24.0,0.,24.0,0.,24.0,0.,24.0
1979-07-22 07:28:55.540 ,6,1,0.,24.0,0.,24.0,0.,24.0,0.,24.0
1979-07-22 07:29:19.540 ,6,0,0.,24.0,0.,24.0,0.,24.0,0.,24.0
1979-07-22 07:29:43.540 ,5,1,0.,24.0,0.,24.0,0.,24.0,0.,24.0
1979-07-22 07:30:07.540 ,5,0,0.,24.0,0.,24.0,0.,24.0,0.,24.0
1979-07-22 07:30:31.540 ,0,0,0.,24.0,0.,24.0,0.,24.0,0.,24.0
1979-07-22 07:30:55.540 ,0,0,0.,24.0,0.,24.0,0.,24.0,0.,24.0
1979-07-22 07:31:19.540 ,3,1,0.,24.0,0.,24.0,0.,24.0,0.,24.0
1979-07-22 07:31:43.540 ,3,0,0.,24.0,0.,24.0,0.,24.0,0.,24.0
1979-07-22 07:32:07.540 ,2,1,0.,24.0,0.,24.0,0.,24.0,0.,24.0
1979-07-22 07:32:31.540 ,2,0,0.,24.0,0.,24.0,0.,24.0,0.,24.0
1979-07-22 07:32:55.540 ,1,1,1.,24.0,0.,24.0,0.,24.0,0.,24.0
1979-07-22 07:33:19.540 ,1,0,0.,24.0,0.,24.0,0.,24.0,0.,24.0
1979-07-22 07:33:43.540 ,0,1,0.,24.0,0.,24.0,0.,24.0,0.,24.0
1979-07-22 07:34:07.540 ,0,0,0.,24.0,0.,24.0,0.,24.0,0.,24.0
1979-07-22 07:34:31.540 ,0,1,0.,24.0,0.,24.0,0.,24.0,0.,24.0
1979-07-22 07:34:55.540 ,0,0,0.,24.0,0.,24.0,0.,24.0,0.,24.0
1979-07-22 07:35:19.540 ,1,1,0.,24.0,0.,24.0,0.,24.0,0.,24.0
1979-07-22 07:35:43.540 ,1,0,0.,24.0,0.,24.0,0.,24.0,0.,24.0
1979-07-22 07:36:07.540 ,2,1,0.,24.0,0.,24.0,0.,24.0,0.,24.0
1979-07-22 07:36:31.540 ,2,0,0.,24.0,0.,24.0,0.,24.0,0.,24.0
1979-07-22 07:36:55.540 ,3,1,0.,24.0,0.,24.0,0.,24.0,0.,24.0
1979-07-22 07:37:19.540 ,3,0,0.,24.0,0.,24.0,0.,24.0,0.,24.0
1979-07-22 07:37:43.540 ,4,1,0.,24.0,0.,24.0,0.,24.0,0.,24.0
1979-07-22 07:38:07.540 ,4,0,0.,24.0,0.,24.0,0.,24.0,0.,24.0
1979-07-22 07:38:31.540 ,5,1,0.,24.0,0.,24.0,0.,24.0,0.,24.0
1979-07-22 07:38:55.540 ,5,0,0.,24.0,0.,24.0,0.,24.0,0.,24.0
1979-07-22 07:39:19.540 ,6,1,0.,24.0,0.,24.0,0.,24.0,0.,24.0
1979-07-22 07:39:43.540 ,6,0,0.,24.0,0.,24.0,0.,24.0,0.,24.0
1979-07-22 07:40:07.540 ,7,1,0.,24.0,0.,24.0,0.,24.0,0.,24.0
1979-07-22 07:40:31.540 ,7,0,0.,24.0,0.,24.0,0.,24.0,0.,24.0
1979-07-22 07:40:55.540 ,7,1,0.,24.0,0.,24.0,0.,24.0,0.,24.0
1979-07-22 07:41:19.540 ,7,0,0.,24.0,0.,24.0,0.,24.0,0.,24.0
1979-07-22 07:41:43.540 ,6,1,0.,24.0,0.,24.0,0.,24.0,0.,24.0
1979-07-22 07:42:07.540 ,6,0,0.,24.0,0.,24.0,0.,24.0,0.,24.0
1979-07-22 07:42:31.540 ,5,1,0.,24.0,0.,24.0,0.,24.0,0.,24.0
1979-07-22 07:42:55.540 ,5,0,0.,24.0,0.,24.0,0.,24.0,0.,24.0
1979-07-22 07:43:19.540 ,4,1,0.,24.0,0.,24.0,0.,24.0,0.,24.0
1979-07-22 07:43:43.540 ,4,0,0.,24.0,0.,24.0,0.,24.0,0.,24.0
1979-07-22 07:44:07.540 ,3,1,1.,24.0,0.,24.0,0.,24.0,0.,24.0
1979-07-22 07:44:31.540 ,3,0,0.,24.0,0.,24.0,0.,24.0,0.,24.0
1979-07-22 07:44:55.540 ,2,1,0.,24.0,0.,24.0,0.,24.0,0.,24.0
1979-07-22 07:45:19.540 ,2,0,0.,24.0,0.,24.0,0.,24.0,0.,24.0
1979-07-22 07:45:43.540 ,1,1,0.,24.0,0.,24.0,0.,24.0,0.,24.0
1979-07-22 07:46:07.540 ,1,0,0.,24.0,0.,24.0,0.,24.0,0.,24.0
1979-07-22 07:46:31.540 ,0,1,0.,24.0,0.,24.0,0.,24.0,0.,24.0
1979-07-22 07:46:55.540 ,0,0,0.,24.0,0.,24.0,0.,24.0,0.,24.0
1979-07-22 07:47:19.540 ,0,1,0.,24.0,0.,24.0,0.,24.0,0.,24.0
1979-07-22 07:47:43.540 ,0,0,0.,24.0,0.,24.0,0.,24.0,0.,24.0
1979-07-22 07:48:07.540 ,1,1,0.,24.0,0.,24.0,0.,24.0,0.,24.0
1979-07-22 07:48:31.540 ,1,0,0.,24.0,0.,24.0,0.,24.0,0.,24.0
1979-07-22 07:48:55.540 ,2,1,0.,24.0,0.,24.0,0.,24.0,0.,24.0
1979-07-22 07:49:19.540 ,2,0,0.,24.0,0.,24.0,0.,24.0,0.,24.0
1979-07-22 07:49:43.540 ,3,1,0.,24.0,0.,24.0,0.,24.0,0.,24.0
1979-07-22 07:50:07.540 ,3,0,0.,24.0,0.,24.0,0.,24.0,0.,24.0
1979-07-22 07:50:31.540 ,4,1,0.,24.0,0.,24.0,0.,24.0,0.,24.0
1979-07-22 07:50:55.540 ,4,0,0.,24.0,0.,24.0,0.,24.0,0.,24.0
1979-07-22 07:51:19.540 ,5,1,0.,24.0,0.,24.0,0.,24.0,0.,24.0
1979-07-22 07:51:43.540 ,5,0,0.,24.0,0.,24.0,0.,24.0,0.,24.0
1979-07-22 07:52:07.540 ,6,1,0.,24.0,0.,24.0,0.,24.0,0.,24.0
1979-07-22 07:52:31.540 ,6,0,0.,24.0,0.,24.0,0.,24.0,0.,24.0
1979-07-22 07:53:19.540 ,7,0,0.,24.0,0.,24.0,0.,24.0,0.,24.0
1979-07-22 07:53:43.540 ,7,1,0.,24.0,0.,24.0,0.,24.0,0.,24.0
1979-07-22 07:54:07.540 ,7,0,0.,24.0,0.,24.0,0.,24.0,0.,24.0
1979-07-22 07:54:31.540 ,6,1,0.,24.0,0.,24.0,0.,24.0,0.,24.0
1979-07-22 07:54:55.540 ,6,0,0.,24.0,0.,24.0,0.,24.0,0.,24.0
1979-07-22 07:55:19.540 ,5,1,0.,24.0,0.,24.0,0.,24.0,0.,24.0
1979-07-22 07:55:43.540 ,5,0,0.,24.0,0.,24.0,0.,24.0,0.,24.0
1979-07-22 07:56:07.540 ,4,1,0.,24.0,0.,24.0,0.,24.0,0.,24.0
1979-07-22 07:56:31.540 ,4,0,0.,24.0,0.,24.0,0.,24.0,0.,24.0
1979-07-22 07:56:55.540 ,3,1,0.,24.0,0.,24.0,0.,24.0,0.,24.0
1979-07-22 07:57:19.540 ,3,0,0.,24.0,0.,24.0,0.,24.0,0.,24.0
1979-07-22 07:57:43.540 ,2,1,0.,24.0,0.,24.0,0.,24.0,0.,24.0
1979-07-22 07:58:07.540 ,2,0,0.,24.0,0.,24.0,0.,24.0,0.,24.0
1979-07-22 07:58:31.540 ,1,1,0.,24.0,0.,24.0,0.,24.0,0.,24.0
1979-07-22 07:58:55.540 ,1,0,0.,24.0,0.,24.0,0.,24.0,0.,24.0
1979-07-22 07:59:19.540 ,0,1,0.,24.0,0.,24.0,0.,24.0,0.,24.0
1979-07-22 07:59:43.540 ,0,0,0.,24.0,0.,24.0,0.,24.0,0.,24.0
1979-07-22 08:00:07.540 ,0,1,0.,24.0,0.,24.0,0.,24.0,0.,24.0
1979-07-22 08:00:31.540 ,0,0,0.,24.0,0.,24.0,0.,24.0,0.,24.0
1979-07-22 08:00:55.540 ,1,1,0.,24.0,0.,24.0,0.,24.0,0.,24.0
1979-07-22 08:01:19.540 ,1,0,0.,24.0,0.,24.0,0.,24.0,0.,24.0
1979-07-22 08:01:43.540 ,2,1,0.,24.0,0.,24.0,0.,24.0,0.,24.0
1979-07-22 08:02:07.540 ,2,0,0.,24.0,0.,24.0,0.,24.0,0.,24.0
1979-07-22 08:02:31.540 ,3,1,0.,24.0,0.,24.0,0.,24.0,0.,24.0
1979-07-22 08:02:55.540 ,3,0,0.,24.0,0.,24.0,0.,24.0,0.,24.0
1979-07-22 08:03:19.540 ,4,1,0.,24.0,0.,24.0,0.,24.0,0.,24.0
1979-07-22 08:03:43.540 ,4,0,0.,24.0,0.,24.0,0.,24.0,0.,24.0
1979-07-22 08:04:07.540 ,5,1,0.,24.0,0.,24.0,0.,24.0,0.,24.0
1979-07-22 08:04:31.540 ,5,0,0.,24.0,0.,24.0,0.,24.0,0.,24.0
1979-07-22 08:04:55.540 ,6,1,1.,24.0,0.,24.0,0.,24.0,0.,24.0
1979-07-22 08:05:19.540 ,6,0,0.,24.0,0.,24.0,0.,24.0,0.,24.0
1979-07-22 08:05:43.540 ,7,1,0.,24.0,0.,24.0,0.,24.0,0.,24.0
1979-07-22 08:06:07.540 ,7,0,0.,24.0,0.,24.0,0.,24.0,0.,24.0
1979-07-22 08:06:31.540 ,7,1,0.,24.0,0.,24.0,0.,24.0,0.,24.0
1979-07-22 08:06:55.540 ,7,0,0.,24.0,0.,24.0,0.,24.0,0.,24.0
1979-07-22 08:07:19.540 ,6,1,0.,24.0,0.,24.0,0.,24.0,0.,24.0
1979-07-22 08:07:43.540 ,6,0,0.,24.0,0.,24.0,0.,24.0,0.,24.0
1979-07-22 08:08:07.540 ,5,1,0.,24.0,0.,24.0,0.,24.0,0.,24.0
1979-07-22 08:08:31.540 ,5,0,0.,24.0,0.,24.0,0.,24.0,0.,24.0
1979-07-22 08:08:55.540 ,4,1,0.,24.0,0.,24.0,0.,24.0,1.,24.0
1979-07-22 08:09:19.540 ,4,0,0.,24.0,0.,24.0,0.,24.0,0.,24.0
1979-07-22 08:09:43.540 ,3,1,0.,24.0,0.,24.0,0.,24.0,0.,24.0
1979-07-22 08:10:07.540 ,3,0,0.,24.0,0.,24.0,0.,24.0,0.,24.0
1979-07-22 08:10:07.540 ,3,0,0.,24.0,0.,24.0,0.,24.0,0.,24.0
1979-07-22 08:10:31.540 ,2,1,0.,24.0,0.,24.0,0.,24.0,0.,24.0
1979-07-22 08:10:55.540 ,2,0,0.,24.0,0.,24.0,0.,24.0,0.,24.0
1979-07-22 08:11:19.540 ,1,1,0.,24.0,0.,24.0,0.,24.0,0.,24.0
1979-07-22 08:11:43.540 ,1,0,0.,24.0,0.,24.0,0.,24.0,0.,24.0
1979-07-22 08:12:07.540 ,0,1,0.,24.0,0.,24.0,0.,24.0,0.,24.0
1979-07-22 08:12:31.540 ,0,0,0.,24.0,0.,24.0,0.,24.0,0.,24.0
1979-07-22 08:12:55.540 ,0,1,0.,24.0,0.,24.0,0.,24.0,0.,24.0
1979-07-22 08:13:19.540 ,0,0,0.,24.0,0.,24.0,0.,24.0,0.,24.0
1979-07-22 08:13:43.540 ,1,1,0.,24.0,0.,24.0,0.,24.0,0.,24.0
1979-07-22 08:14:07.540 ,1,0,1.,24.0,0.,24.0,0.,24.0,0.,24.0
1979-07-22 08:14:31.540 ,2,1,0.,24.0,0.,24.0,0.,24.0,0.,24.0
1979-07-22 08:14:55.540 ,2,0,0.,24.0,0.,24.0,0.,24.0,0.,24.0
1979-07-22 08:15:19.540 ,3,1,0.,24.0,0.,24.0,0.,24.0,0.,24.0
1979-07-22 08:15:43.540 ,3,0,0.,24.0,0.,24.0,0.,24.0,0.,24.0
1979-07-22 08:16:07.540 ,4,1,0.,24.0,0.,24.0,0.,24.0,0.,24.0
1979-07-22 08:16:31.540 ,4,0,0.,24.0,0.,24.0,0.,24.0,0.,24.0
1979-07-22 08:16:55.540 ,5,1,0.,24.0,0.,24.0,0.,24.0,0.,24.0
1979-07-22 08:17:19.540 ,5,0,0.,24.0,0.,24.0,0.,24.0,0.,24.0
1979-07-22 08:17:43.540 ,6,1,0.,24.0,0.,24.0,0.,24.0,0.,24.0
1979-07-22 08:18:07.540 ,6,0,0.,24.0,0.,24.0,0.,24.0,0.,24.0
1979-07-22 08:18:31.540 ,7,1,0.,24.0,0.,24.0,0.,24.0,0.,24.0
1979-07-22 08:18:55.540 ,7,0,0.,24.0,0.,24.0,0.,24.0,0.,24.0
1979-07-22 08:19:19.540 ,7,1,0.,24.0,0.,24.0,0.,24.0,0.,24.0
1979-07-22 08:19:43.540 ,7,0,0.,24.0,0.,24.0,0.,24.0,0.,24.0
1979-07-22 08:20:07.540 ,6,1,0.,24.0,0.,24.0,0.,24.0,0.,24.0
1979-07-22 08:20:31.540 ,6,0,0.,24.0,0.,24.0,0.,24.0,0.,24.0
1979-07-22 08:20:55.540 ,5,1,1.,24.0,0.,24.0,0.,24.0,0.,24.0
1979-07-22 08:21:19.540 ,5,0,0.,24.0,0.,24.0,0.,24.0,0.,24.0
1979-07-22 08:21:43.540 ,4,1,0.,24.0,0.,24.0,0.,24.0,0.,24.0
1979-07-22 08:22:07.540 ,4,0,0.,24.0,0.,24.0,0.,24.0,0.,24.0
1979-07-22 08:22:31.540 ,3,1,0.,24.0,0.,24.0,0.,24.0,0.,24.0
1979-07-22 08:22:55.540 ,3,0,0.,24.0,0.,24.0,0.,24.0,0.,24.0
1979-07-22 08:23:19.540 ,2,1,0.,24.0,0.,24.0,0.,24.0,0.,24.0
1979-07-22 08:23:43.540 ,2,0,0.,24.0,0.,24.0,0.,24.0,0.,24.0
1979-07-22 08:24:07.540 ,1,1,0.,24.0,0.,24.0,0.,24.0,0.,24.0
1979-07-22 08:24:31.540 ,1,0,0.,24.0,0.,24.0,0.,24.0,0.,24.0
1979-07-22 08:24:55.540 ,0,1,0.,24.0,0.,24.0,0.,24.0,0.,24.0
1979-07-22 08:25:19.540 ,0,0,0.,24.0,0.,24.0,0.,24.0,0.,24.0
1979-07-22 08:25:43.540 ,0,1,0.,24.0,0.,24.0,0.,24.0,0.,24.0
1979-07-22 08:26:07.540 ,0,0,0.,24.0,0.,24.0,0.,24.0,0.,24.0
1979-07-22 08:26:31.540 ,1,1,0.,24.0,0.,24.0,0.,24.0,0.,24.0
1979-07-22 08:26:55.540 ,1,0,0.,24.0,0.,24.0,0.,24.0,0.,24.0
1979-07-22 08:27:19.540 ,2,1,0.,24.0,0.,24.0,0.,24.0,0.,24.0
1979-07-22 08:27:43.540 ,2,0,0.,24.0,0.,24.0,0.,24.0,0.,24.0
1979-07-22 08:28:07.540 ,3,1,0.,24.0,0.,24.0,0.,24.0,0.,24.0
1979-07-22 08:28:31.540 ,3,0,0.,24.0,0.,24.0,0.,24.0,0.,24.0
1979-07-22 08:28:55.540 ,4,1,0.,24.0,0.,24.0,0.,24.0,0.,24.0
1979-07-22 08:29:19.540 ,4,0,0.,24.0,0.,24.0,0.,24.0,0.,24.0
1979-07-22 08:29:43.540 ,5,1,0.,24.0,0.,24.0,0.,24.0,0.,24.0
1979-07-22 08:30:07.540 ,5,0,0.,24.0,0.,24.0,0.,24.0,0.,24.0
1979-07-22 08:30:31.540 ,6,1,1.,24.0,0.,24.0,0.,24.0,0.,24.0
1979-07-22 08:30:55.540 ,6,0,0.,24.0,0.,24.0,0.,24.0,0.,24.0
1979-07-22 08:31:19.540 ,7,1,0.,24.0,0.,24.0,0.,24.0,0.,24.0
1979-07-22 08:31:43.540 ,7,0,0.,24.0,0.,24.0,0.,24.0,0.,24.0
1979-07-22 08:32:07.540 ,7,1,0.,24.0,0.,24.0,0.,24.0,0.,24.0
1979-07-22 08:32:31.540 ,7,0,0.,24.0,0.,24.0,0.,24.0,0.,24.0
1979-07-22 08:32:55.540 ,6,1,0.,24.0,0.,24.0,0.,24.0,0.,24.0
1979-07-22 08:33:19.540 ,6,0,0.,24.0,0.,24.0,0.,24.0,0.,24.0
1979-07-22 08:33:43.540 ,5,1,1.,24.0,0.,24.0,0.,24.0,0.,24.0
1979-07-22 08:34:07.540 ,5,0,0.,24.0,0.,24.0,0.,24.0,0.,24.0
1979-07-22 08:34:31.540 ,4,1,0.,24.0,0.,24.0,0.,24.0,0.,24.0
1979-07-22 08:34:55.540 ,4,0,0.,24.0,0.,24.0,0.,24.0,0.,24.0
1979-07-22 08:35:19.540 ,3,1,0.,24.0,0.,24.0,0.,24.0,0.,24.0
1979-07-22 08:35:43.540 ,3,0,0.,24.0,0.,24.0,0.,24.0,0.,24.0